contact:dominique.lefevre@mio.osupytheas.fr, maurice.libes@osupytheas.fr, didier.mallarino@osupytheas.fr
Project:EMSO http://www.emso-fr.org/EMSO-France
Depth: 2436.0 m
Title:EMSO Ligure Ouest : Data MII capteur MICROCAT
DateTime_Computer,Latitude,Longitude,Temperature,Conductivity,Pressure,DateTime_Instrument
DateTime_Computer,Latitude,Longitude,degC,S m-1,dbar,DateTime_Instrument
2020-02-12T00:01:50Z,42.805,6.029,13.2966,4.59974,2469.9,2020-2-12T02:02:25Z
2020-02-12T00:04:54Z,42.805,6.029,13.2974,4.59975,2469.9,2020-2-12T02:05:28Z
2020-02-12T00:07:57Z,42.805,6.029,13.2968,4.59973,2469.923,2020-2-12T02:08:31Z
2020-02-12T00:11:00Z,42.805,6.029,13.2967,4.59971,2469.937,2020-2-12T02:11:35Z
2020-02-12T00:14:03Z,42.805,6.029,13.2983,4.59975,2469.937,2020-2-12T02:14:38Z
2020-02-12T00:17:06Z,42.805,6.029,13.2968,4.59976,2469.923,2020-2-12T02:17:41Z
2020-02-12T00:20:10Z,42.805,6.029,13.2966,4.59974,2469.923,2020-2-12T02:20:44Z
2020-02-12T00:23:13Z,42.805,6.029,13.2968,4.59974,2469.9,2020-2-12T02:23:47Z
2020-02-12T00:26:16Z,42.805,6.029,13.2967,4.59976,2469.923,2020-2-12T02:26:51Z
2020-02-12T00:29:19Z,42.805,6.029,13.2968,4.59975,2469.914,2020-2-12T02:29:54Z
2020-02-12T00:32:22Z,42.805,6.029,13.2971,4.59974,2469.914,2020-2-12T02:32:57Z
2020-02-12T00:35:26Z,42.805,6.029,13.2966,4.59975,2469.923,2020-2-12T02:36:00Z
2020-02-12T00:38:29Z,42.805,6.029,13.2967,4.59974,2469.89,2020-2-12T02:39:03Z
2020-02-12T00:41:32Z,42.805,6.029,13.2967,4.59968,2469.876,2020-2-12T02:42:07Z
2020-02-12T00:44:35Z,42.805,6.029,13.2967,4.59976,2469.914,2020-2-12T02:45:10Z
2020-02-12T00:47:38Z,42.805,6.029,13.2966,4.59969,2469.9,2020-2-12T02:48:13Z
2020-02-12T00:50:42Z,42.805,6.029,13.2967,4.59975,2469.853,2020-2-12T02:51:16Z
2020-02-12T00:53:45Z,42.805,6.029,13.2964,4.59968,2469.876,2020-2-12T02:54:19Z
2020-02-12T00:56:48Z,42.805,6.029,13.2970,4.59969,2469.876,2020-2-12T02:57:23Z
2020-02-12T00:59:51Z,42.805,6.029,13.2967,4.59968,2469.876,2020-2-12T03:00:26Z
2020-02-12T01:02:55Z,42.805,6.029,13.2968,4.59970,2469.867,2020-2-12T03:03:29Z
2020-02-12T01:05:58Z,42.805,6.029,13.2967,4.59970,2469.853,2020-2-12T03:06:32Z
2020-02-12T01:09:01Z,42.805,6.029,13.2967,4.59972,2469.876,2020-2-12T03:09:36Z
2020-02-12T01:12:04Z,42.805,6.029,13.2966,4.59981,2469.853,2020-2-12T03:12:39Z
2020-02-12T01:15:07Z,42.805,6.029,13.2965,4.59970,2469.83,2020-2-12T03:15:42Z
2020-02-12T01:18:11Z,42.805,6.029,13.2969,4.59975,2469.853,2020-2-12T03:18:45Z
2020-02-12T01:21:14Z,42.805,6.029,13.2968,4.59976,2469.844,2020-2-12T03:21:48Z
2020-02-12T01:24:17Z,42.805,6.029,13.2970,4.59971,2469.844,2020-2-12T03:24:52Z
2020-02-12T01:27:20Z,42.805,6.029,13.2968,4.59973,2469.867,2020-2-12T03:27:55Z
2020-02-12T01:30:23Z,42.805,6.029,13.2968,4.59973,2469.83,2020-2-12T03:30:58Z
2020-02-12T01:33:27Z,42.805,6.029,13.2968,4.59979,2469.853,2020-2-12T03:34:01Z
2020-02-12T01:36:30Z,42.805,6.029,13.2969,4.59976,2469.83,2020-2-12T03:37:04Z
2020-02-12T01:39:33Z,42.805,6.029,13.2967,4.59976,2469.853,2020-2-12T03:40:08Z
2020-02-12T01:42:36Z,42.805,6.029,13.2967,4.59976,2469.853,2020-2-12T03:43:11Z
2020-02-12T01:45:39Z,42.805,6.029,13.2966,4.59969,2469.89,2020-2-12T03:46:14Z
2020-02-12T01:48:43Z,42.805,6.029,13.2971,4.59968,2469.83,2020-2-12T03:49:17Z
2020-02-12T01:51:46Z,42.805,6.029,13.2966,4.59971,2469.83,2020-2-12T03:52:20Z
2020-02-12T01:54:49Z,42.805,6.029,13.2969,4.59970,2469.89,2020-2-12T03:55:24Z
2020-02-12T01:57:52Z,42.805,6.029,13.2971,4.59972,2469.876,2020-2-12T03:58:27Z
2020-02-12T02:00:55Z,42.805,6.029,13.2967,4.59979,2469.853,2020-2-12T04:01:30Z
2020-02-12T02:03:59Z,42.805,6.029,13.2983,4.59981,2469.806,2020-2-12T04:04:33Z
2020-02-12T02:07:02Z,42.805,6.029,13.2991,4.59996,2469.844,2020-2-12T04:07:37Z
2020-02-12T02:10:05Z,42.805,6.029,13.2968,4.59981,2469.806,2020-2-12T04:10:40Z
2020-02-12T02:13:08Z,42.805,6.029,13.2968,4.59976,2469.83,2020-2-12T04:13:43Z
2020-02-12T02:16:11Z,42.805,6.029,13.2972,4.59974,2469.844,2020-2-12T04:16:46Z
2020-02-12T02:19:15Z,42.805,6.029,13.2971,4.59979,2469.83,2020-2-12T04:19:49Z
2020-02-12T02:22:18Z,42.805,6.029,13.2993,4.59975,2469.83,2020-2-12T04:22:52Z
2020-02-12T02:25:21Z,42.805,6.029,13.2968,4.59975,2469.821,2020-2-12T04:25:56Z
2020-02-12T02:28:24Z,42.805,6.029,13.2982,4.59981,2469.844,2020-2-12T04:28:59Z
2020-02-12T02:31:27Z,42.805,6.029,13.2968,4.59986,2469.797,2020-2-12T04:32:02Z
2020-02-12T02:34:31Z,42.805,6.029,13.2964,4.59977,2469.806,2020-2-12T04:35:05Z
2020-02-12T02:37:34Z,42.805,6.029,13.2968,4.59976,2469.83,2020-2-12T04:38:08Z
2020-02-12T02:40:37Z,42.805,6.029,13.2970,4.59978,2469.821,2020-2-12T04:41:12Z
2020-02-12T02:43:40Z,42.805,6.029,13.2966,4.59975,2469.83,2020-2-12T04:44:15Z
2020-02-12T02:46:43Z,42.805,6.029,13.2976,4.59985,2469.83,2020-2-12T04:47:18Z
2020-02-12T02:49:47Z,42.805,6.029,13.2969,4.59973,2469.844,2020-2-12T04:50:21Z
2020-02-12T02:52:50Z,42.805,6.029,13.2968,4.59986,2469.806,2020-2-12T04:53:25Z
2020-02-12T02:55:53Z,42.805,6.029,13.2967,4.59981,2469.797,2020-2-12T04:56:28Z
2020-02-12T02:58:56Z,42.805,6.029,13.2970,4.59981,2469.797,2020-2-12T04:59:31Z
2020-02-12T03:01:59Z,42.805,6.029,13.2962,4.59971,2469.806,2020-2-12T05:02:34Z
2020-02-12T03:05:03Z,42.805,6.029,13.2969,4.59974,2469.821,2020-2-12T05:05:37Z
2020-02-12T03:08:06Z,42.805,6.029,13.2965,4.59980,2469.806,2020-2-12T05:08:41Z
2020-02-12T03:11:09Z,42.805,6.029,13.2967,4.59972,2469.83,2020-2-12T05:11:44Z
2020-02-12T03:14:12Z,42.805,6.029,13.2964,4.59976,2469.806,2020-2-12T05:14:47Z
2020-02-12T03:17:16Z,42.805,6.029,13.2968,4.59978,2469.83,2020-2-12T05:17:50Z
2020-02-12T03:20:19Z,42.805,6.029,13.2969,4.59974,2469.821,2020-2-12T05:20:53Z
2020-02-12T03:23:22Z,42.805,6.029,13.2967,4.59975,2469.783,2020-2-12T05:23:57Z
2020-02-12T03:26:25Z,42.805,6.029,13.2967,4.59976,2469.797,2020-2-12T05:27:00Z
2020-02-12T03:29:28Z,42.805,6.029,13.2968,4.59974,2469.806,2020-2-12T05:30:03Z
2020-02-12T03:32:31Z,42.805,6.029,13.2968,4.59972,2469.83,2020-2-12T05:33:06Z
2020-02-12T03:35:35Z,42.805,6.029,13.2968,4.59971,2469.783,2020-2-12T05:36:09Z
2020-02-12T03:38:38Z,42.805,6.029,13.2965,4.59971,2469.83,2020-2-12T05:39:13Z
2020-02-12T03:41:41Z,42.805,6.029,13.2964,4.59975,2469.83,2020-2-12T05:42:16Z
2020-02-12T03:44:44Z,42.805,6.029,13.2962,4.59972,2469.821,2020-2-12T05:45:19Z
2020-02-12T03:47:47Z,42.805,6.029,13.2964,4.59973,2469.806,2020-2-12T05:48:22Z
2020-02-12T03:50:51Z,42.805,6.029,13.2967,4.59970,2469.83,2020-2-12T05:51:25Z
2020-02-12T03:53:54Z,42.805,6.029,13.2965,4.59973,2469.806,2020-2-12T05:54:28Z
2020-02-12T03:56:57Z,42.805,6.029,13.2969,4.59971,2469.806,2020-2-12T05:57:32Z
2020-02-12T04:00:00Z,42.805,6.029,13.2964,4.59972,2469.83,2020-2-12T06:00:35Z
2020-02-12T04:03:03Z,42.805,6.029,13.2968,4.59968,2469.853,2020-2-12T06:03:38Z
2020-02-12T04:06:07Z,42.805,6.029,13.2968,4.59969,2469.806,2020-2-12T06:06:41Z
2020-02-12T04:09:10Z,42.805,6.029,13.2968,4.59970,2469.806,2020-2-12T06:09:44Z
2020-02-12T04:12:13Z,42.805,6.029,13.2966,4.59972,2469.853,2020-2-12T06:12:48Z
2020-02-12T04:15:16Z,42.805,6.029,13.2967,4.59971,2469.806,2020-2-12T06:15:51Z
2020-02-12T04:18:19Z,42.805,6.029,13.2970,4.59973,2469.821,2020-2-12T06:18:54Z
2020-02-12T04:21:23Z,42.805,6.029,13.2968,4.59975,2469.844,2020-2-12T06:21:57Z
2020-02-12T04:24:26Z,42.805,6.029,13.2968,4.59974,2469.844,2020-2-12T06:25:00Z
2020-02-12T04:27:29Z,42.805,6.029,13.2965,4.59973,2469.844,2020-2-12T06:28:04Z
2020-02-12T04:30:32Z,42.805,6.029,13.2974,4.59970,2469.821,2020-2-12T06:31:07Z
2020-02-12T04:33:35Z,42.805,6.029,13.2967,4.59970,2469.853,2020-2-12T06:34:10Z
2020-02-12T04:36:39Z,42.805,6.029,13.2969,4.59969,2469.844,2020-2-12T06:37:13Z
2020-02-12T04:39:42Z,42.805,6.029,13.2966,4.59969,2469.83,2020-2-12T06:40:16Z
2020-02-12T04:42:45Z,42.805,6.029,13.2969,4.59973,2469.853,2020-2-12T06:43:20Z
2020-02-12T04:45:48Z,42.805,6.029,13.2968,4.59973,2469.844,2020-2-12T06:46:23Z
2020-02-12T04:48:51Z,42.805,6.029,13.2968,4.59978,2469.844,2020-2-12T06:49:26Z
2020-02-12T04:51:55Z,42.805,6.029,13.2967,4.59970,2469.853,2020-2-12T06:52:29Z
2020-02-12T04:54:58Z,42.805,6.029,13.2968,4.59971,2469.853,2020-2-12T06:55:32Z
2020-02-12T04:58:01Z,42.805,6.029,13.2971,4.59971,2469.83,2020-2-12T06:58:36Z
2020-02-12T05:01:05Z,42.805,6.029,13.2966,4.59976,2469.89,2020-2-12T07:01:39Z
2020-02-12T05:04:08Z,42.805,6.029,13.2968,4.59969,2469.83,2020-2-12T07:04:42Z
2020-02-12T05:07:11Z,42.805,6.029,13.2968,4.59969,2469.876,2020-2-12T07:07:46Z
2020-02-12T05:10:14Z,42.805,6.029,13.2971,4.59973,2469.867,2020-2-12T07:10:49Z
2020-02-12T05:13:17Z,42.805,6.029,13.2968,4.59970,2469.867,2020-2-12T07:13:52Z
2020-02-12T05:16:21Z,42.805,6.029,13.2971,4.59969,2469.867,2020-2-12T07:16:55Z
2020-02-12T05:19:24Z,42.805,6.029,13.2968,4.59969,2469.853,2020-2-12T07:19:58Z
2020-02-12T05:22:27Z,42.805,6.029,13.2968,4.59969,2469.867,2020-2-12T07:23:02Z
2020-02-12T05:25:30Z,42.805,6.029,13.2968,4.59971,2469.914,2020-2-12T07:26:05Z
2020-02-12T05:28:33Z,42.805,6.029,13.2965,4.59972,2469.89,2020-2-12T07:29:08Z
2020-02-12T05:31:36Z,42.805,6.029,13.2969,4.59969,2469.853,2020-2-12T07:32:11Z
2020-02-12T05:34:40Z,42.805,6.029,13.2968,4.59970,2469.89,2020-2-12T07:35:14Z
2020-02-12T05:37:43Z,42.805,6.029,13.2969,4.59968,2469.89,2020-2-12T07:38:17Z
2020-02-12T05:40:46Z,42.805,6.029,13.2967,4.59983,2469.876,2020-2-12T07:41:21Z
2020-02-12T05:43:49Z,42.805,6.029,13.2967,4.59968,2469.876,2020-2-12T07:44:24Z
2020-02-12T05:46:53Z,42.805,6.029,13.2969,4.59969,2469.853,2020-2-12T07:47:27Z
2020-02-12T05:49:56Z,42.805,6.029,13.2967,4.59970,2469.876,2020-2-12T07:50:30Z
2020-02-12T05:52:59Z,42.805,6.029,13.2965,4.59969,2469.923,2020-2-12T07:53:33Z
2020-02-12T05:56:02Z,42.805,6.029,13.2966,4.59971,2469.876,2020-2-12T07:56:37Z
2020-02-12T05:59:05Z,42.805,6.029,13.2967,4.59968,2469.89,2020-2-12T07:59:40Z
2020-02-12T06:02:08Z,42.805,6.029,13.2968,4.59970,2469.923,2020-2-12T08:02:43Z
2020-02-12T06:05:12Z,42.805,6.029,13.2969,4.59968,2469.923,2020-2-12T08:05:46Z
2020-02-12T06:08:15Z,42.805,6.029,13.2969,4.59970,2469.914,2020-2-12T08:08:50Z
2020-02-12T06:11:18Z,42.805,6.029,13.2970,4.59969,2469.914,2020-2-12T08:11:53Z
2020-02-12T06:14:21Z,42.805,6.029,13.2968,4.59970,2469.937,2020-2-12T08:14:56Z
2020-02-12T06:17:24Z,42.805,6.029,13.2970,4.59972,2469.923,2020-2-12T08:17:59Z
2020-02-12T06:20:28Z,42.805,6.029,13.2970,4.59970,2469.947,2020-2-12T08:21:02Z
2020-02-12T06:23:31Z,42.805,6.029,13.2968,4.59969,2469.923,2020-2-12T08:24:05Z
2020-02-12T06:26:34Z,42.805,6.029,13.2967,4.59969,2469.97,2020-2-12T08:27:09Z
2020-02-12T06:29:37Z,42.805,6.029,13.2971,4.59969,2469.979,2020-2-12T08:30:12Z
2020-02-12T06:32:40Z,42.805,6.029,13.2970,4.59969,2469.984,2020-2-12T08:33:15Z
2020-02-12T06:35:44Z,42.805,6.029,13.2968,4.59968,2469.96,2020-2-12T08:36:18Z
2020-02-12T06:38:47Z,42.805,6.029,13.2971,4.59968,2469.97,2020-2-12T08:39:22Z
2020-02-12T06:41:50Z,42.805,6.029,13.2968,4.59968,2469.97,2020-2-12T08:42:25Z
2020-02-12T06:44:53Z,42.805,6.029,13.2968,4.59969,2470.007,2020-2-12T08:45:28Z
2020-02-12T06:47:57Z,42.805,6.029,13.2968,4.59972,2469.97,2020-2-12T08:48:31Z
2020-02-12T06:51:00Z,42.805,6.029,13.2970,4.59971,2469.993,2020-2-12T08:51:34Z
2020-02-12T06:54:03Z,42.805,6.029,13.2968,4.59968,2469.984,2020-2-12T08:54:38Z
2020-02-12T06:57:06Z,42.805,6.029,13.2967,4.59969,2470.007,2020-2-12T08:57:41Z
2020-02-12T07:00:09Z,42.805,6.029,13.2968,4.59971,2470.007,2020-2-12T09:00:44Z
2020-02-12T07:03:13Z,42.805,6.029,13.2965,4.59968,2470.017,2020-2-12T09:03:47Z
2020-02-12T07:06:16Z,42.805,6.029,13.2968,4.59973,2470.017,2020-2-12T09:06:50Z
2020-02-12T07:09:19Z,42.805,6.029,13.2972,4.59969,2470.007,2020-2-12T09:09:54Z
2020-02-12T07:12:22Z,42.805,6.029,13.2964,4.59968,2470.063,2020-2-12T09:12:57Z
2020-02-12T07:15:25Z,42.805,6.029,13.2967,4.59969,2470.017,2020-2-12T09:16:00Z
2020-02-12T07:18:29Z,42.805,6.029,13.2968,4.59971,2470.03,2020-2-12T09:19:03Z
2020-02-12T07:21:32Z,42.805,6.029,13.2966,4.59969,2470.087,2020-2-12T09:22:06Z
2020-02-12T07:24:35Z,42.805,6.029,13.2970,4.59968,2470.03,2020-2-12T09:25:10Z
2020-02-12T07:27:38Z,42.805,6.029,13.2966,4.59968,2470.04,2020-2-12T09:28:13Z
2020-02-12T07:30:41Z,42.805,6.029,13.2968,4.59969,2470.04,2020-2-12T09:31:16Z
2020-02-12T07:33:44Z,42.805,6.029,13.2966,4.59969,2470.063,2020-2-12T09:34:19Z
2020-02-12T07:36:48Z,42.805,6.029,13.2966,4.59968,2470.03,2020-2-12T09:37:22Z
2020-02-12T07:39:51Z,42.805,6.029,13.2964,4.59970,2470.063,2020-2-12T09:40:26Z
2020-02-12T07:42:54Z,42.805,6.029,13.2967,4.59968,2470.063,2020-2-12T09:43:29Z
2020-02-12T07:45:57Z,42.805,6.029,13.2968,4.59970,2470.017,2020-2-12T09:46:32Z
2020-02-12T07:49:01Z,42.805,6.029,13.2970,4.59969,2470.077,2020-2-12T09:49:35Z
2020-02-12T07:52:04Z,42.805,6.029,13.2968,4.59971,2470.087,2020-2-12T09:52:38Z
2020-02-12T07:55:07Z,42.805,6.029,13.2968,4.59968,2470.087,2020-2-12T09:55:41Z
2020-02-12T07:58:10Z,42.805,6.029,13.2967,4.59968,2470.063,2020-2-12T09:58:45Z
2020-02-12T08:01:13Z,42.805,6.029,13.2969,4.59968,2470.04,2020-2-12T10:01:48Z
2020-02-12T08:04:16Z,42.805,6.029,13.2964,4.59968,2470.063,2020-2-12T10:04:51Z
2020-02-12T08:07:20Z,42.805,6.029,13.2966,4.59968,2470.087,2020-2-12T10:07:54Z
2020-02-12T08:10:23Z,42.805,6.029,13.2967,4.59973,2470.1,2020-2-12T10:10:57Z
2020-02-12T08:13:26Z,42.805,6.029,13.2967,4.59969,2470.087,2020-2-12T10:14:01Z
2020-02-12T08:16:29Z,42.805,6.029,13.2970,4.59973,2470.11,2020-2-12T10:17:04Z
2020-02-12T08:19:32Z,42.805,6.029,13.2969,4.59970,2470.063,2020-2-12T10:20:07Z
2020-02-12T08:22:36Z,42.805,6.029,13.2970,4.59968,2470.1,2020-2-12T10:23:10Z
2020-02-12T08:25:39Z,42.805,6.029,13.2968,4.59968,2470.063,2020-2-12T10:26:13Z
2020-02-12T08:28:42Z,42.805,6.029,13.2967,4.59969,2470.11,2020-2-12T10:29:17Z
2020-02-12T08:31:45Z,42.805,6.029,13.2970,4.59970,2470.133,2020-2-12T10:32:20Z
2020-02-12T08:34:48Z,42.805,6.029,13.2968,4.59970,2470.087,2020-2-12T10:35:23Z
2020-02-12T08:37:52Z,42.805,6.029,13.2966,4.59974,2470.11,2020-2-12T10:38:26Z
2020-02-12T08:40:55Z,42.805,6.029,13.2968,4.59968,2470.133,2020-2-12T10:41:30Z
2020-02-12T08:43:58Z,42.805,6.029,13.2968,4.59968,2470.124,2020-2-12T10:44:33Z
2020-02-12T08:47:01Z,42.805,6.029,13.2968,4.59969,2470.11,2020-2-12T10:47:36Z
2020-02-12T08:50:04Z,42.805,6.029,13.2968,4.59972,2470.124,2020-2-12T10:50:39Z
2020-02-12T08:53:08Z,42.805,6.029,13.2968,4.59972,2470.1,2020-2-12T10:53:42Z
2020-02-12T08:56:11Z,42.805,6.029,13.2968,4.59970,2470.087,2020-2-12T10:56:46Z
2020-02-12T08:59:14Z,42.805,6.029,13.2969,4.59970,2470.11,2020-2-12T10:59:49Z
2020-02-12T09:02:18Z,42.805,6.029,13.2968,4.59969,2470.147,2020-2-12T11:02:52Z
2020-02-12T09:05:21Z,42.805,6.029,13.2968,4.59969,2470.133,2020-2-12T11:05:55Z
2020-02-12T09:08:24Z,42.805,6.029,13.2965,4.59968,2470.124,2020-2-12T11:08:59Z
2020-02-12T09:11:27Z,42.805,6.029,13.2968,4.59969,2470.11,2020-2-12T11:12:02Z
2020-02-12T09:14:30Z,42.805,6.029,13.2967,4.59969,2470.133,2020-2-12T11:15:05Z
2020-02-12T09:17:33Z,42.805,6.029,13.2967,4.59969,2470.087,2020-2-12T11:18:08Z
2020-02-12T09:20:37Z,42.805,6.029,13.2970,4.59973,2470.087,2020-2-12T11:21:11Z
2020-02-12T09:23:40Z,42.805,6.029,13.2967,4.59968,2470.11,2020-2-12T11:24:15Z
2020-02-12T09:26:43Z,42.805,6.029,13.2965,4.59969,2470.124,2020-2-12T11:27:18Z
2020-02-12T09:29:47Z,42.805,6.029,13.2965,4.59973,2470.133,2020-2-12T11:30:21Z
2020-02-12T09:32:50Z,42.805,6.029,13.2968,4.59970,2470.124,2020-2-12T11:33:24Z
2020-02-12T09:35:53Z,42.805,6.029,13.2967,4.59974,2470.133,2020-2-12T11:36:28Z
2020-02-12T09:38:56Z,42.805,6.029,13.2968,4.59969,2470.147,2020-2-12T11:39:31Z
2020-02-12T09:41:59Z,42.805,6.029,13.2968,4.59970,2470.11,2020-2-12T11:42:34Z
2020-02-12T09:45:03Z,42.805,6.029,13.2968,4.59968,2470.11,2020-2-12T11:45:37Z
2020-02-12T09:48:06Z,42.805,6.029,13.2966,4.59969,2470.11,2020-2-12T11:48:40Z
2020-02-12T09:51:09Z,42.805,6.029,13.2967,4.59968,2470.087,2020-2-12T11:51:44Z
2020-02-12T09:54:12Z,42.805,6.029,13.2966,4.59968,2470.147,2020-2-12T11:54:47Z
2020-02-12T09:57:15Z,42.805,6.029,13.2964,4.59972,2470.124,2020-2-12T11:57:50Z
2020-02-12T10:00:19Z,42.805,6.029,13.2971,4.59970,2470.147,2020-2-12T12:00:53Z
2020-02-12T10:03:22Z,42.805,6.029,13.2967,4.59969,2470.11,2020-2-12T12:03:56Z
2020-02-12T10:06:25Z,42.805,6.029,13.2970,4.59971,2470.133,2020-2-12T12:07:00Z
2020-02-12T10:09:28Z,42.805,6.029,13.2969,4.59969,2470.147,2020-2-12T12:10:03Z
2020-02-12T10:12:31Z,42.805,6.029,13.2968,4.59970,2470.124,2020-2-12T12:13:06Z
2020-02-12T10:15:35Z,42.805,6.029,13.2969,4.59971,2470.147,2020-2-12T12:16:09Z
2020-02-12T10:18:38Z,42.805,6.029,13.2968,4.59971,2470.11,2020-2-12T12:19:12Z
2020-02-12T10:21:41Z,42.805,6.029,13.2970,4.59969,2470.124,2020-2-12T12:22:16Z
2020-02-12T10:24:44Z,42.805,6.029,13.2971,4.59970,2470.087,2020-2-12T12:25:19Z
2020-02-12T10:27:47Z,42.805,6.029,13.2971,4.59969,2470.11,2020-2-12T12:28:22Z
2020-02-12T10:30:50Z,42.805,6.029,13.2967,4.59970,2470.133,2020-2-12T12:31:25Z
2020-02-12T10:33:54Z,42.805,6.029,13.2969,4.59970,2470.133,2020-2-12T12:34:28Z
2020-02-12T10:36:57Z,42.805,6.029,13.2969,4.59971,2470.11,2020-2-12T12:37:32Z
2020-02-12T10:40:00Z,42.805,6.029,13.2962,4.59969,2470.087,2020-2-12T12:40:35Z
2020-02-12T10:43:03Z,42.805,6.029,13.2965,4.59969,2470.1,2020-2-12T12:43:38Z
2020-02-12T10:46:07Z,42.805,6.029,13.2968,4.59969,2470.133,2020-2-12T12:46:41Z
2020-02-12T10:49:10Z,42.805,6.029,13.2967,4.59970,2470.1,2020-2-12T12:49:44Z
2020-02-12T10:52:13Z,42.805,6.029,13.2968,4.59971,2470.11,2020-2-12T12:52:48Z
2020-02-12T10:55:16Z,42.805,6.029,13.2964,4.59968,2470.11,2020-2-12T12:55:51Z
2020-02-12T10:58:20Z,42.805,6.029,13.2968,4.59968,2470.087,2020-2-12T12:58:54Z
2020-02-12T11:01:23Z,42.805,6.029,13.2965,4.59969,2470.1,2020-2-12T13:01:57Z
2020-02-12T11:04:26Z,42.805,6.029,13.2964,4.59972,2470.124,2020-2-12T13:05:01Z
2020-02-12T11:07:29Z,42.805,6.029,13.2966,4.59972,2470.11,2020-2-12T13:08:04Z
2020-02-12T11:10:32Z,42.805,6.029,13.2969,4.59971,2470.087,2020-2-12T13:11:07Z
2020-02-12T11:13:36Z,42.805,6.029,13.2968,4.59968,2470.087,2020-2-12T13:14:10Z
2020-02-12T11:16:39Z,42.805,6.029,13.2970,4.59969,2470.133,2020-2-12T13:17:13Z
2020-02-12T11:19:42Z,42.805,6.029,13.2968,4.59971,2470.124,2020-2-12T13:20:17Z
2020-02-12T11:22:45Z,42.805,6.029,13.2965,4.59971,2470.1,2020-2-12T13:23:20Z
2020-02-12T11:25:48Z,42.805,6.029,13.2969,4.59968,2470.1,2020-2-12T13:26:23Z
2020-02-12T11:28:52Z,42.805,6.029,13.2970,4.59970,2470.087,2020-2-12T13:29:26Z
2020-02-12T11:31:55Z,42.805,6.029,13.2967,4.59967,2470.053,2020-2-12T13:32:29Z
2020-02-12T11:34:58Z,42.805,6.029,13.2967,4.59967,2470.063,2020-2-12T13:35:33Z
2020-02-12T11:38:01Z,42.805,6.029,13.2966,4.59968,2470.053,2020-2-12T13:38:36Z
2020-02-12T11:41:04Z,42.805,6.029,13.2969,4.59968,2470.1,2020-2-12T13:41:39Z
2020-02-12T11:44:08Z,42.805,6.029,13.2967,4.59969,2470.087,2020-2-12T13:44:42Z
2020-02-12T11:47:11Z,42.805,6.029,13.2968,4.59967,2470.087,2020-2-12T13:47:45Z
2020-02-12T11:50:14Z,42.805,6.029,13.2967,4.59968,2470.1,2020-2-12T13:50:49Z
2020-02-12T11:53:17Z,42.805,6.029,13.2967,4.59968,2470.053,2020-2-12T13:53:52Z
2020-02-12T11:56:20Z,42.805,6.029,13.2967,4.59970,2470.04,2020-2-12T13:56:55Z
2020-02-12T11:59:23Z,42.805,6.029,13.2961,4.59969,2470.053,2020-2-12T13:59:58Z
2020-02-12T12:02:27Z,42.805,6.029,13.2967,4.59969,2470.053,2020-2-12T14:03:01Z
2020-02-12T12:05:30Z,42.805,6.029,13.2968,4.59968,2470.053,2020-2-12T14:06:05Z
2020-02-12T12:08:34Z,42.805,6.029,13.2968,4.59968,2470.04,2020-2-12T14:09:08Z
2020-02-12T12:11:37Z,42.805,6.029,13.2964,4.59975,2470.04,2020-2-12T14:12:12Z
2020-02-12T12:14:40Z,42.805,6.029,13.2967,4.59970,2470.04,2020-2-12T14:15:15Z
2020-02-12T12:17:43Z,42.805,6.029,13.2966,4.59968,2469.993,2020-2-12T14:18:18Z
2020-02-12T12:20:47Z,42.805,6.029,13.2968,4.59968,2470.04,2020-2-12T14:21:21Z
2020-02-12T12:23:50Z,42.805,6.029,13.2967,4.59969,2470.03,2020-2-12T14:24:24Z
2020-02-12T12:26:53Z,42.805,6.029,13.2969,4.59971,2470.017,2020-2-12T14:27:28Z
2020-02-12T12:29:56Z,42.805,6.029,13.2969,4.59971,2470.03,2020-2-12T14:30:31Z
2020-02-12T12:32:59Z,42.805,6.029,13.2968,4.59968,2470.007,2020-2-12T14:33:34Z
2020-02-12T12:36:03Z,42.805,6.029,13.2967,4.59969,2470.017,2020-2-12T14:36:37Z
2020-02-12T12:39:06Z,42.805,6.029,13.2968,4.59968,2470.053,2020-2-12T14:39:40Z
2020-02-12T12:42:09Z,42.805,6.029,13.2964,4.59968,2470.017,2020-2-12T14:42:44Z
2020-02-12T12:45:13Z,42.805,6.029,13.2967,4.59967,2470.017,2020-2-12T14:45:47Z
2020-02-12T12:48:16Z,42.805,6.029,13.2964,4.59968,2470.017,2020-2-12T14:48:50Z
2020-02-12T12:51:19Z,42.805,6.029,13.2966,4.59968,2470.007,2020-2-12T14:51:54Z
2020-02-12T12:54:22Z,42.805,6.029,13.2967,4.59968,2469.993,2020-2-12T14:54:57Z
2020-02-12T12:57:25Z,42.805,6.029,13.2968,4.59968,2469.993,2020-2-12T14:58:00Z
2020-02-12T13:00:29Z,42.805,6.029,13.2968,4.59968,2469.984,2020-2-12T15:01:03Z
2020-02-12T13:03:32Z,42.805,6.029,13.2967,4.59968,2470.017,2020-2-12T15:04:07Z
2020-02-12T13:06:35Z,42.805,6.029,13.2967,4.59968,2469.984,2020-2-12T15:07:10Z
2020-02-12T13:09:38Z,42.805,6.029,13.2968,4.59968,2469.984,2020-2-12T15:10:13Z
2020-02-12T13:12:41Z,42.805,6.029,13.2969,4.59968,2469.993,2020-2-12T15:13:16Z
2020-02-12T13:15:45Z,42.805,6.029,13.2971,4.59969,2469.97,2020-2-12T15:16:20Z
2020-02-12T13:18:48Z,42.805,6.029,13.2966,4.59968,2469.984,2020-2-12T15:19:23Z
2020-02-12T13:21:51Z,42.805,6.029,13.2967,4.59968,2469.993,2020-2-12T15:22:26Z
2020-02-12T13:24:55Z,42.805,6.029,13.2969,4.59968,2469.993,2020-2-12T15:25:29Z
2020-02-12T13:27:58Z,42.805,6.029,13.2968,4.59967,2469.947,2020-2-12T15:28:33Z
2020-02-12T13:31:01Z,42.805,6.029,13.2965,4.59967,2470.017,2020-2-12T15:31:36Z
2020-02-12T13:34:04Z,42.805,6.029,13.2965,4.59968,2469.984,2020-2-12T15:34:39Z
2020-02-12T13:37:07Z,42.805,6.029,13.2966,4.59968,2469.97,2020-2-12T15:37:42Z
2020-02-12T13:40:11Z,42.805,6.029,13.2967,4.59968,2469.947,2020-2-12T15:40:45Z
2020-02-12T13:43:14Z,42.805,6.029,13.2966,4.59967,2469.923,2020-2-12T15:43:48Z
2020-02-12T13:46:17Z,42.805,6.029,13.2964,4.59968,2469.96,2020-2-12T15:46:52Z
2020-02-12T13:49:20Z,42.805,6.029,13.2970,4.59969,2469.947,2020-2-12T15:49:55Z
2020-02-12T13:52:23Z,42.805,6.029,13.2970,4.59968,2469.97,2020-2-12T15:52:58Z
2020-02-12T13:55:27Z,42.805,6.029,13.2968,4.59966,2469.96,2020-2-12T15:56:01Z
2020-02-12T13:58:30Z,42.805,6.029,13.2968,4.59968,2469.97,2020-2-12T15:59:04Z
2020-02-12T14:01:33Z,42.805,6.029,13.2968,4.59968,2469.96,2020-2-12T16:02:08Z
2020-02-12T14:04:36Z,42.805,6.029,13.2966,4.59971,2469.97,2020-2-12T16:05:11Z
2020-02-12T14:07:39Z,42.805,6.029,13.2966,4.59968,2469.97,2020-2-12T16:08:14Z
2020-02-12T14:10:43Z,42.805,6.029,13.2968,4.59971,2469.947,2020-2-12T16:11:17Z
2020-02-12T14:13:46Z,42.805,6.029,13.2969,4.59967,2469.96,2020-2-12T16:14:20Z
2020-02-12T14:16:49Z,42.805,6.029,13.2972,4.59968,2469.923,2020-2-12T16:17:24Z
2020-02-12T14:19:52Z,42.805,6.029,13.2971,4.59968,2469.97,2020-2-12T16:20:27Z
2020-02-12T14:22:56Z,42.805,6.029,13.2967,4.59967,2469.96,2020-2-12T16:23:30Z
2020-02-12T14:25:59Z,42.805,6.029,13.2967,4.59967,2469.937,2020-2-12T16:26:33Z
2020-02-12T14:29:02Z,42.805,6.029,13.2968,4.59969,2469.947,2020-2-12T16:29:37Z
2020-02-12T14:32:05Z,42.805,6.029,13.2968,4.59968,2469.947,2020-2-12T16:32:40Z
2020-02-12T14:35:08Z,42.805,6.029,13.2969,4.59968,2469.947,2020-2-12T16:35:43Z
2020-02-12T14:38:11Z,42.805,6.029,13.2970,4.59967,2469.923,2020-2-12T16:38:46Z
2020-02-12T14:41:15Z,42.805,6.029,13.2966,4.59968,2469.914,2020-2-12T16:41:49Z
2020-02-12T14:44:18Z,42.805,6.029,13.2968,4.59968,2469.9,2020-2-12T16:44:53Z
2020-02-12T14:47:21Z,42.805,6.029,13.2970,4.59968,2469.947,2020-2-12T16:47:56Z
2020-02-12T14:50:24Z,42.805,6.029,13.2967,4.59968,2469.89,2020-2-12T16:50:59Z
2020-02-12T14:53:27Z,42.805,6.029,13.2968,4.59971,2469.914,2020-2-12T16:54:02Z
2020-02-12T14:56:31Z,42.805,6.029,13.2968,4.59968,2469.923,2020-2-12T16:57:05Z
2020-02-12T14:59:34Z,42.805,6.029,13.2968,4.59967,2469.89,2020-2-12T17:00:09Z
2020-02-12T15:02:37Z,42.805,6.029,13.2963,4.59967,2469.9,2020-2-12T17:03:12Z
2020-02-12T15:05:40Z,42.805,6.029,13.2964,4.59967,2469.89,2020-2-12T17:06:15Z
2020-02-12T15:08:43Z,42.805,6.029,13.2968,4.59969,2469.89,2020-2-12T17:09:18Z
2020-02-12T15:11:47Z,42.805,6.029,13.2965,4.59968,2469.876,2020-2-12T17:12:21Z
2020-02-12T15:14:50Z,42.805,6.029,13.2969,4.59969,2469.89,2020-2-12T17:15:24Z